Weather in Forster

Australia     32°11′36″S   152°30′54″E
temp.,
°C
wind,
m/s
gust,
m/s
humid.,
%
clouds,
%
prec.,
mm/h
press.,
hPa
HPBL,
m
22 january, sat
sat2223:00+20se577615 0.6 1025789
02:00+19se467775 0.2 1023568
05:00+20sse467325 0.4 1022730
08:00+21sse3674100 0.3 1023644
11:00+22se666820 1.0 10221146
14:00+24sse665618 0.1 10201562
17:00+23sse56608 0.2 10191348
20:00+21sse577528 0.2 1019756
23 january, sun
sun2323:00+19s367956 0.4 1019639
02:00+19s35773 0.3 1018642
05:00+18sw358443 0.4 1016426
08:00+19sw358113 0.2 1017400
11:00+23s456560 0.6 10161236
14:00+24sse456135 0.5 10151337
17:00+23sse556423 0.6 10131079
20:00+21s35746 0.0 1014564
24 january, mon
mon2423:00+20ssw237931 0.1 1015520
02:00+19ssw128120 0.0 1013386
05:00+18wsw238725 0.1 1013131
08:00+21sw237798 0.2 1014270
11:00+23s237124 0.4 1013723
14:00+23se346847 0.1 1012688
17:00+24ese446822 0.1 1010995
20:00+22ese347336 0.0 1011589
25 january, tue
tue2523:00+21ene347632 0.0 1012556
02:00+20ne2478100 0.0 1010535
05:00+20nne1281100 0.0 1010396
08:00+21ese017474 0.0 1012340
11:00+24ene4264100 0.1 1012892
14:00+24ene5465100 0.0 1010721
17:00+23ene5566100 0.0 1009645
20:00+22ne4671100 0.0 1010499
26 january, wed
wed2623:00+21ne4676100 0.0 1011484
02:00+21nne3681100 0.0 1011452
05:00+19n238940 0.0 1011188
08:00+21n23795 0.0 1013277
11:00+24ene33705 0.0 1013687
14:00+24ene54642 0.0 1012766
17:00+24ene56620 0.0 1012796
20:00+22ne57676 0.0 1013643